Location: Asheville, NC
(35.6000°N, 82.5500°W)
Time: 09:29:18
(UTC-04:00)

RS-15 - Pass Details

Date: 11 January 2018
Orbit: 1891 x 2154 km, 64.8° (Epoch: 16 July)

Event Time Altitude Azimuth Distance (km) Brightness Sun altitude
Rises 20:34:24 0° 325° (NW) 5,535 10.8 -35.6°
Reaches altitude 10° 20:37:57 10° 321° (NW) 4,497 10.3 -36.3°
Maximum altitude 20:48:49 50° 251° (WSW) 2,381 8.6 -38.5°
Drops below altitude 10° 20:59:14 10° 180° (S) 4,297 9.8 -40.6°
Sets 21:02:35 0° 175° (S) 5,274 10.3 -41.3°
